2020-079C (46829 NORAD) Tracking and Keplerian Element Data

This shows tracking and keplerian element data for the satellite.

Feedback or suggestion? Click here.




ElementValue
Catalog46829
Name2020-079C
Epoch Orbit259
Epoch Day328.1219255
Epoch Year2020
RAAN39.9889
Inclination97.2647
Eccentricity0.0009228
Argument of Perigee180.3176
Mean Anonmoly239.9427
Mean Motion15.30985991
Decay Rate2.368E-05
L11 46829U 20079C 20328.12192550 .00002368 00000-0 81548-4 0 9996
L22 46829 97.2647 39.9889 0009228 180.3176 239.9427 15.30985991 2591

Live tracking and technical data element details for 2020-079C (NORAD 46829). 2020-079C can be tracked NOW for your location showing map with azimuth and elevation plus other details from your city location.

Track the satellite on the map from your city or location and see movement details for azimuth, elevation, latitude, longitude, range, height, and movement on the map or in text.







IsCatalogInMostPopularTable: catalog: 46829, numindb: 5
Update: records affected: 1



GetName: 46829 2020-079C

Hit Count: updated at: Tue, 24 Nov 2020 11:51:34 GMT